Regional Weather Roundup
Issued by NWS

Home | Current Version | Previous Version | Graphics & Text | Print | Product List | Glossary On
Versions: 1 2 3 4 5 6 7 8 9 10 11 12 13 14 15 16 17 18 19 20 21 22 23 24 25 26 27 28 29 30 31 32 33 34 35 36 37 38 39 40 41 42 43 44 45 46 47 48 49 50
652
ASUS43 KMPX 242010
RWRMN
WEATHER ROUNDUP FOR MINNESOTA
NATIONAL WEATHER SERVICE TWIN CITIES/CHANHASSEN MN
300 PM CDT TUE APR 24 2018


NOTE: "FAIR" INDICATES FEW OR NO CLOUDS BELOW 12,000 FEET WITH NO
SIGNIFICANT WEATHER AND/OR OBSTRUCTIONS TO VISIBILITY. N/A MEANS
CURRENT SKY AND/OR WEATHER CONDITIONS ARE NOT AVAILABLE.

MNZ060>063-068>070-242100-
   Twin Cities Metro

CITY           SKY/WX    TMP DP  RH WIND       PRES   REMARKS
TWIN CITIES    PTSUNNY   64  33  31 N18       30.16S
ST PAUL        FAIR      62  34  35 N17G28    30.16S
CRYSTAL        PTSUNNY   60  30  32 N18G25    30.17S
BLAINE         PTSUNNY   63  32  31 N17G26    30.18S
LAKEVILLE      FAIR      63  36  36 N17       30.13F
EDEN PRAIRIE   FAIR      63  34  33 N14G22    30.15S
SOUTH ST PAUL  FAIR      63  32  31 N17       30.14F
LAKE ELMO      FAIR      61  36  39 N14G22    30.16S
$$
MNZ001>005-007-008-013>017-022>024-027-028-242100-
   Northwest Minnesota

CITY           SKY/WX    TMP DP  RH WIND       PRES   REMARKS
BEMIDJI        FAIR      52  27  38 NW14G21   30.27S
HALLOCK        FAIR      52  19  28 N18G24    30.38S
ROSEAU         FAIR      46  30  53 N16       30.35S
WARROAD        FAIR      37  28  70 E10       30.36R
THIEF RVR FALL FAIR      49  23  36 N23G35    30.34S
CROOKSTON      FAIR      50  30  46 N25G32    30.36F
FOSSTON        FAIR      50  28  43 NW20G29   30.32S
DETROIT LAKES  FAIR      52  32  46 N10G20    30.31F
MOORHEAD       FAIR      52  32  46 N25G32    30.35F
PARK RAPIDS    FAIR      55  26  32 N16G24    30.25F
MAHNOMEN       FAIR      51  30  44 N16G25    30.31S
$$
MNZ006-009>011-018-025>026-242100-
   North Central Minnesota

CITY           SKY/WX    TMP DP  RH WIND       PRES   REMARKS
BAUDETTE       FAIR      39  24  55 N16G24    30.34R
FLAG ISLAND    FAIR      37  21  52 NW9       30.34F
INTL FALLS     FAIR      44  26  49 N13       30.29R
WASKISH        CLOUDY    46  28  49 N12G20    30.30S
BIG FORK       FAIR      50  27  40 N10G16    30.25S
LONGVILLE      FAIR      54  25  32 NW9G18    30.25F
GRAND RAPIDS   FAIR      52  25  35 NW17G23   30.24F
CRANE LAKE     FAIR      43  25  49 N9G17     30.27S
ORR            FAIR      48  21  34 NW9       30.22R
COOK           FAIR      48  27  43 NW9G17    30.22S
WALKER         FAIR      53  26  35 NW13G22   30.25F
$$
MNZ012-019>021-037-242100-
   Northeast Minnesota

CITY           SKY/WX    TMP DP  RH WIND       PRES   REMARKS
DULUTH         FAIR      54  33  45 NW15G23   30.19F
ELY            FAIR      48  25  40 N8G22     30.19S
HIBBING        FAIR      52  27  38 NW16G28   30.20F
EVELETH        FAIR      53  25  34 NW12G20   30.21F
DULUTH HARBOR  FAIR      50  32  50 SE3       30.21F
TWO HARBORS    FAIR      61  37  41 W3        30.16F
SILVER BAY     FAIR      54  30  40 SW8       30.15F
GRAND MARAIS     N/A     41  31  67 SW7       30.17F
G MARAIS ARPRT FAIR      48  21  34 NW9G17    30.15F
$$
MNZ029>031-032-039>041-046>048-054>057-064-242100-
   West Central Minnesota

CITY           SKY/WX    TMP DP  RH WIND       PRES   REMARKS
FERGUS FALLS   FAIR      54  32  43 N14G24    30.28F
WHEATON        CLOUDY    54  36  50 N17G23    30.34F
MORRIS         CLOUDY    52  41  66 N15G22    30.29F
ALEXANDRIA     FAIR      55  34  45 N14       30.27F
ELBOW LAKE     FAIR      51  32  48 N12G24    30.30F
WADENA         FAIR      52  32  46 N10G21    30.26F
GLENWOOD       FAIR      52  37  58 N15       30.27F
APPLETON       CLOUDY    48  41  76 N21       30.30S
BENSON         PTSUNNY   48  39  71 NE15G23   30.30S
ORTONVILLE     CLOUDY    46  41  81 N15       30.31S
WILLMAR        FAIR      48  43  81 N14       30.28F
$$
MNZ033>034-036-042>043-049>051-058-059-242100-
   Central Minnesota

CITY           SKY/WX    TMP DP  RH WIND       PRES   REMARKS
ST CLOUD       CLOUDY    50  41  71 N14       30.23F
SAUK CENTRE    FAIR      50  35  57 N14       30.26F
PAYNESVILLE    CLOUDY    49  43  78 N12       30.25F
AITKIN         FAIR      54  28  37 NW12G17   30.21F
PINE RIVER     FAIR      52  27  37 NW9       30.27F
BRAINERD       FAIR      54  28  36 N16G23    30.24F
STAPLES        FAIR      55  27  33 NW13G21   30.25F
LONG PRAIRIE   FAIR      52  36  54 NW13      30.26F
LITTLE FALLS   FAIR      52  25  35 N6        30.25F
LITCHFIELD     FAIR      52  45  76 N14       30.24S
BUFFALO        PTSUNNY   52  39  61 NW18G25   30.22R
MAPLE LAKE     FAIR      51  43  76 N16G24    30.24R
HUTCHINSON     FAIR      56  42  58 NW21G26   30.22S
$$
MNZ037-044-045-052-053-242100-
   East Central Minnesota

CITY           SKY/WX    TMP DP  RH WIND       PRES   REMARKS
PRINCETON      LGT RAIN  50  43  76 NW10      30.23F
MORA           PTSUNNY   50  37  62 N7        30.24F
CAMBRIDGE      DRIZZLE   52  37  58 NW8G16    30.22R
RUSH CITY      DRIZZLE   49  36  61 N12G20    30.22R
MOOSE LAKE     FAIR      52  34  50 N12       30.20F
HINCKLEY       CLOUDY    52  37  58 N9        30.22F
CLOQUET        FAIR      54  28  37 NW12G20   30.19F
MCGREGOR       FAIR      54  32  43 N12       30.22F
$$
MNZ071>073-080-081-089-090-097-098-242100-
   Southwest Minnesota

CITY           SKY/WX    TMP DP  RH WIND       PRES   REMARKS
MONTEVIDEO     DRIZZLE   45  43  93 N15G21    30.29R
GRANITE FALLS  CLOUDY    48  43  84 NW16      30.28S
CANBY          LGT RAIN  45  40  84 N14       30.31R
MARSHALL       CLOUDY    47  42  83 N21       30.26R
REDWOOD FALLS  PTSUNNY   53  43  68 N13G22    30.22F
OLIVIA         PTSUNNY   50  43  76 N16       30.24R
PIPESTONE      LGT RAIN N/A N/A N/A NE16G24   30.24R
WINDOM         MOSUNNY   52  34  50 N22       30.21R
WORTHINGTON    LGT RAIN  48  42  80 N17G26    30.21R
JACKSON        CLOUDY    52  41  66 N16G28    30.19S
TRACY          CLOUDY    51  46  83 N20G25    30.24R
SLAYTON        CLOUDY    47  42  85 N17G25    30.24R
$$
MNZ065>067-074>077-082>085-091>093-242100-
   South Central Minnesota

CITY           SKY/WX    TMP DP  RH WIND       PRES   REMARKS
MANKATO        FAIR      59  37  44 N21       30.15R
NEW ULM        CLOUDY    55  37  50 N9G21     30.19S
ST JAMES       CLOUDY    55  39  54 N20       30.20R
FAIRMONT       CLOUDY    57  43  59 N23       30.17R
GLENCOE        PTSUNNY   59  39  48 N18G26    30.19R
OWATONNA       FAIR      64  39  39 N12G20    30.11F
WASECA         FAIR      63  39  42 N18       30.13S
ALBERT LEA     FAIR      64  39  39 NW13G20   30.11S
$$
MNZ078>079-086>088-094>096-242100-
   Southeast Minnesota

CITY           SKY/WX    TMP DP  RH WIND       PRES   REMARKS
ROCHESTER      CLOUDY    63  43  48 N23G30    30.09S
RED WING       PTSUNNY   66  27  22 N14G22    30.10S
STANTON        FAIR      65  39  38 N16G22    30.11F
DODGE CENTER   FAIR      63  41  45 N17       30.10F
WINONA         FAIR      72  36  26 N7        30.03F
AUSTIN         PTSUNNY   63  46  55 N12G22    30.10S
PRESTON        PTSUNNY   69  38  32 N10G20    30.07S
$$
ABBREVIATIONS USED IN REMARKS
   TC - TEMPERATURES IN CELSIUS
  WCI - WIND CHILL INDEX
   HX - HEAT INDEX
  VSB - VISIBILITY
$$




USA.gov is the U.S. government's official web portal to all federal, state and local government web resources and services.